Regional Weather Roundup
Issued by NWS Cleveland, OH

Home | Current Version | Previous Version | Graphics & Text | Print | Product List | Glossary On
Versions: 1 2 3 4 5 6 7 8 9 10 11 12 13 14 15 16 17 18 19 20 21 22 23 24 25 26 27 28 29 30 31 32 33 34 35 36 37 38 39 40 41 42 43 44 45 46 47 48 49 50
000
ASUS41 KCLE 201400
RWRCLE
OHIO REGIONAL WEATHER ROUNDUP
NATIONAL WEATHER SERVICE WILMINGTON, OH
1000 AM EDT WED AUG 20 2014

NOTE: "FAIR" INDICATES FEW OR NO CLOUDS BELOW 12,000 FEET WITH NO
SIGNIFICANT WEATHER AND/OR OBSTRUCTIONS TO VISIBILITY.

OHZ001>008-015>018-024>027-034-035-043-044-201500-
   NORTHWEST OHIO

CITY           SKY/WX    TMP DP  RH WIND       PRES   REMARKS
DEFIANCE       SUNNY     74  67  78 VRB3      29.87S
FINDLAY        MOSUNNY   74  68  81 W7        29.88R
TOLEDO EXPRESS CLOUDY    72  67  84 W5        29.86R
TOLEDO METCALF PTSUNNY   73  67  81 W8        29.87S
LIMA           MOSUNNY   73  68  84 SW8       29.90R
$$

OHZ009>014-019>023-028>033-038-089-201500-
   NORTHEAST OHIO

CITY           SKY/WX    TMP DP  RH WIND       PRES   REMARKS
CLE-HOPKINS    MOSUNNY   72  65  78 S10       29.90S
CLE-LAKEFRONT  MOSUNNY   72  66  81 S14       29.87R
CUY CO. ARPT   PTSUNNY   72  68  88 S12       29.89R
LORAIN-ELYRIA  PTSUNNY   74  66  76 S10       29.89S
ASHTABULA      CLOUDY    67  65  93 S8        29.91S
AKRON-CANTON   PTSUNNY   70  64  81 S8        29.93R
WOOSTER        NOT AVBL
MANSFIELD      MOSUNNY   74  69  85 SW7       29.92R
YOUNGSTOWN     CLOUDY    67  64  90 S9        29.92S
$$

OHZ042-051>053-060>062-070>072-077>081-201500-
  SOUTHWEST OHIO

CITY           SKY/WX    TMP DP  RH WIND       PRES   REMARKS
CINC-COVINGTON MOSUNNY   72  68  87 S7        29.94R
CINC-LUNKEN    PTSUNNY   70  67  90 S6        29.94S
HAMILTON       SUNNY     76  69  79 CALM      29.94S
DAYTON         NOT AVBL
WRIGHT-PAT AFB SUNNY     74  66  77 SW9       29.93R
DAYTON GENERAL SUNNY     73  68  84 S9        29.93R
WILMINGTON     SUNNY     73  66  78 SW9       29.94S
$$

OHZ036-037-039>041-045>050-054>059-063>069-073>076-082>088-201500-
  CENTRAL AND SOUTHEAST OHIO

CITY           SKY/WX    TMP DP  RH WIND       PRES   REMARKS
COLUMBUS       MOSUNNY   74  65  73 SW8       29.92R
OSU AIRPORT    SUNNY     74  64  71 SW7       29.92S
BOLTON FIELD   SUNNY     72  66  83 SW9       29.94R
RICKENBACK AFB NOT AVBL
NEWARK         MOSUNNY   73  66  78 SW7       29.93R
MARION         SUNNY     73  67  81 SW8       29.91R
LANCASTER      MOSUNNY   74  66  76 SW6       29.94R
ZANESVILLE     PTSUNNY   72  67  84 SE8       29.95R
NEW PHILLY     CLOUDY    68  66  93 SE8       29.95R
$$


USA.gov is the U.S. government's official web portal to all federal, state and local government web resources and services.